Location: *
(48.8780°N, 19.2358°E)
Time: 05:34:52
(UTC+00:00)

STARLINK-80 - Pass Details

Date: 18 October 2019
Orbit: 494 x 496 km, 53.0° (Epoch: 21 November)

Event Time Altitude Azimuth Distance (km) Brightness Sun altitude
Rises 16:59:22 0° 278° (W) 2,584 9.0 -12.4°
Reaches altitude 10° 17:01:38 10° 285° (WNW) 1,700 7.4 -12.8°
Maximum altitude 17:05:19 43° 358° (N) 705 4.2 -13.4°
Enters shadow 17:07:34 21° 62° (ENE) 1,180 4.8 -13.7°
